Location: Andershausen
(51.8462°N, 9.8595°E)
Time: 10:21:52
(UTC+00:00)

Cosmos 1833 Rocket - Pass Details

Date: 18 November 2025
Orbit: 829 x 840 km, 71.0° (Epoch: 11 December)

Event Time Altitude Azimuth Distance (km) Brightness Sun altitude
Rises 16:21:34 0° 326° (NW) 3,406 6.0 -8.6°
Reaches altitude 10° 16:24:05 10° 321° (NW) 2,468 5.4 -8.9°
Maximum altitude 16:29:30 48° 249° (WSW) 1,095 3.9 -9.7°
Drops below altitude 10° 16:34:52 10° 177° (S) 2,450 5.3 -10.5°
Sets 16:37:21 0° 171° (S) 3,380 6.0 -10.9°
